This is the latest recevied weather packets stored in our database for station/object KJ7HSW. If no packets are shown the sender has not sent any weather packets the latest 10 day(s).
| Time | Temp. | Humidity | Pressure | Rain* | Wind** | Luminosity | Snow |
|---|---|---|---|---|---|---|---|
| 1777937348 | 28.33° C | 36% | 1008.5 hPa | 0 mm | - | 487 W/m² | - |
| 1777937045 | 28.89° C | 36% | 1008.5 hPa | 0 mm | - | 523 W/m² | - |
| 1777936742 | 28.89° C | 36% | 1008.4 hPa | 0 mm | - | 535 W/m² | - |
| 1777936438 | 28.89° C | 35% | 1008.7 hPa | 0 mm | - | 553 W/m² | - |
| 1777936135 | 28.89° C | 35% | 1008.4 hPa | 0 mm | - | 570 W/m² | - |
| 1777935832 | 28.89° C | 35% | 1008.5 hPa | 0 mm | - | 582 W/m² | - |
| 1777935531 | 28.89° C | 35% | 1008.7 hPa | 0 mm | - | 597 W/m² | - |
| 1777935227 | 28.89° C | 34% | 1008.6 hPa | 0 mm | - | 612 W/m² | - |
| 1777934925 | 28.89° C | 33% | 1008.6 hPa | 0 mm | - | 621 W/m² | - |
| 1777934621 | 28.89° C | 34% | 1008.6 hPa | 0 mm | - | 633 W/m² | - |
| 1777934318 | 28.89° C | 37% | 1008.7 hPa | 0 mm | - | 652 W/m² | - |
| 1777934013 | 28.89° C | 34% | 1008.9 hPa | 0 mm | - | 665 W/m² | - |
| 1777933710 | 28.89° C | 37% | 1008.8 hPa | 0 mm | - | 678 W/m² | - |
| 1777933407 | 28.89° C | 36% | 1008.9 hPa | 0 mm | - | 684 W/m² | - |
| 1777933106 | 28.89° C | 34% | 1008.8 hPa | 0 mm | - | 697 W/m² | - |
| 1777932802 | 28.89° C | 34% | 1008.8 hPa | 0 mm | - | 709 W/m² | - |
| 1777932499 | 28.89° C | 33% | 1009.1 hPa | 0 mm | - | 718 W/m² | - |
| 1777932196 | 28.33° C | 35% | 1009 hPa | 0 mm | - | 725 W/m² | - |
| 1777931893 | 27.78° C | 34% | 1009 hPa | 0 mm | - | 733 W/m² | - |
| 1777931589 | 28.33° C | 34% | 1008.8 hPa | 0 mm | - | 743 W/m² | - |
| 1777931285 | 28.33° C | 35% | 1009 hPa | 0 mm | - | 749 W/m² | - |
| 1777930982 | 28.33° C | 36% | 1009 hPa | 0 mm | - | 753 W/m² | - |
| 1777930679 | 28.33° C | 35% | 1008.9 hPa | 0 mm | - | 763 W/m² | - |
| 1777930375 | 28.33° C | 34% | 1009.2 hPa | 0 mm | - | 774 W/m² | - |
| 1777930072 | 28.33° C | 33% | 1009.2 hPa | 0 mm | - | 781 W/m² | - |
* Rain latest hour (hover to see other rain measurements)
** Current wind speed in m/s (hover to see current wind gust speed)